Preview of NWS' New Version of Forecast
This preview is not operational and should not be used for support decisions.

Regional Weather Roundup (RWR)

Issued by National Weather Service (NWS)

                            
000
ASUS46 KSEW 161910
RWRWA 

WASHINGTON REGIONAL WEATHER ROUNDUP
NATIONAL WEATHER SERVICE SEATTLE WA
1200 PM PDT TUE JUL 16 2019

NOTE:"FAIR" INDICATES FEW OR NO CLOUDS BELOW 12,000 FEET WITH NO 
SIGNIFICANT WEATHER AND/OR OBSTRUCTIONS TO VISIBILITY.

WAZ507-509-555>559-162000-
SEATTLE, TACOMA, EVERETT, AND VICINITY
  
CITY           SKY/WX    TMP DP  RH WIND       PRES   REMARKS
EVERETT        MOSUNNY   71  57  61 W7        30.04S                  
BOEING FIELD   PTSUNNY   71  58  63 CALM      30.02S                  
RENTON         PTSUNNY   70  59  68 SW5       30.02S                  
SEATAC AIRPORT PTSUNNY   71  59  65 SW7       30.04S                  
JBLM-MCCHORD   CLOUDY    70  64  80 W3        30.04R                  
PUYALLUP       CLOUDY    72  61  68 CALM      30.04S                  
BREMERTON      PTSUNNY   69  59  70 SW8       30.04R                  
JBLM-FT LEWIS  PTSUNNY   70  64  83 SW5       30.03R                  
TACOMA NARROWS PTSUNNY   70  59  68 CALM      30.04R                  
$$
 
WAZ001-503-506-510-514-515-162000-
NORTH INTERIOR
  
CITY           SKY/WX    TMP DP  RH WIND       PRES   REMARKS
BELLINGHAM     SUNNY     68  56  65 S9        30.02S                  
FRIDAY HARBOR  SUNNY     60  54  80 E7        30.04S                  
EASTSOUND        N/A     64  59  82 N6        30.02R                  
PORT ANGELES   CLOUDY    64  57  78 VRB3      30.04S                  
EDIZ HOOK      CLOUDY    58  55  88 NW8       30.03F                  
PORT TOWNSEND  FAIR      70  57  64 VRB7      30.02F                  
NAS WHIDBEY    PTSUNNY   64  55  72 W6        30.08R                  
ARLINGTON      SUNNY     73  58  59 W7        30.02S                  
BURLINGTON     SUNNY     77  59  53 S5        30.02F                  
$$
 
WAZ020-022-039-040-504-511-512-162000-
SOUTHWEST INTERIOR
  
CITY           SKY/WX    TMP DP  RH WIND       PRES   REMARKS
SHELTON        CLOUDY    70  58  65 S3        30.01S                  
OLYMPIA        CLOUDY    71  57  61 VRB5      30.03R                  
CHEHALIS       FAIR      75  61  60 VRB7      30.03F                  
KELSO            N/A     72  59  63 CALM      30.03                   
VANCOUVER      CLOUDY    71  57  61 VRB3      30.03S                  
SCAPPOOSE, OR  PTSUNNY   72  59  63 VRB3      30.02F                  
PORTLAND, OR   PTSUNNY   74  58  57 N6        30.03S                  
$$
 
WAZ021-516-517-162000-
WASHINGTON COAST
  
CITY           SKY/WX    TMP DP  RH WIND       PRES   REMARKS
FORKS          CLOUDY    66  57  72 VRB3      30.03F                  
HOQUIAM        PTSUNNY   70  60  70 W12       30.04S                  
ASTORIA, OR    CLOUDY    66  61  84 W6        30.04S                  
$$
 
WAZ019-023-024-040-567>569-162000-
CASCADE MOUNTAINS AND COLUMBIA GORGE
  
CITY           SKY/WX    TMP DP  RH WIND       PRES   REMARKS
STAMPEDE PASS  LGT RAIN  56  52  86 VRB5      30.09R                  
TROUTDALE, OR  CLOUDY    72  58  61 VRB3      30.02S                  
HOOD RIVER, OR MOCLDY    77  54  44 W12G18    29.99S                  
THE DALLES, OR SUNNY     80  53  39 NW14      29.95F                  
$$

WAZ026-027-041>044-520-521-162000-
EAST SLOPES
  
CITY           SKY/WX    TMP DP  RH WIND       PRES   REMARKS
OMAK           MOSUNNY   76  51  41 SE8       29.94F                  
WENATCHEE      SUNNY     77  45  32 S9        29.93F                  
ELLENSBURG     SUNNY     78  48  34 VRB5      29.96F                  
YAKIMA         MOSUNNY   77  50  38 CALM      29.95F                  
SUNNYSIDE ARPT CLEAR     78  53  42 SW5       29.95                   
YAKIMA TC      FAIR      78  46  31 NW6       29.94F                  
$$

WAZ028-034-035-162000-
COLUMBIA BASIN
  
CITY           SKY/WX    TMP DP  RH WIND       PRES   REMARKS
EPHRATA        MOSUNNY   76  49  38 VRB3      29.93F                  
MOSES LAKE     SUNNY     77  68  73 NW5       29.94F                  
PASCO          MOSUNNY   81  52  36 VRB5      29.94F                  
RICHLAND ARPT  CLEAR     83  51  33 SW5       29.93F                  
HERMISTON, OR  MOSUNNY   80  53  39 W12G18    29.95F                  
$$

WAZ036>038-162000-
NORTHEAST WASHINGTON
  
CITY           SKY/WX    TMP DP  RH WIND       PRES   REMARKS
SPOKANE GEIGER PTSUNNY   66  52  60 VRB5      30.01F                  
SPOKANE FELTS  PTSUNNY   66  57  72 CALM      30.01F                  
FAIRCHILD AFB  MOSUNNY   68  54  60 S5        30.00F                  
COEURDALENE,ID CLOUDY    63  56  78 CALM      30.02F                  
DEER PARK      PTSUNNY   66  55  67 SE8       30.01F                  
$$

WAZ029>033-162000-
SOUTHEAST WASHINGTON
  
CITY           SKY/WX    TMP DP  RH WIND       PRES   REMARKS
PULLMAN        PTSUNNY   69  52  54 W6        30.03F                  
LEWISTON, ID   MOSUNNY   79  51  37 MISG      29.96F                  
WALLA WALLA    MOSUNNY   79  49  34 W12G18    29.96F                  
PENDLETON, OR  MOSUNNY   78  50  37 W13G18    29.97F                  
$$